Location: Sternwarte Stuttgart
(48.7670°N, 9.1830°E)
Time: 14:13:49
(UTC+02:00)

Lacrosse 5 - Pass Details

Date: 24 January 2019
Orbit: 717 x 722 km, 57.0° (Epoch: 21 April)

Event Time Altitude Azimuth Distance (km) Brightness Sun altitude
Exits shadow 04:59:15 31° 21° (NNE) 1,270 3.3 -30.1°
Drops below altitude 10° 05:03:00 10° 66° (ENE) 2,215 5.2 -29.5°
Sets 05:05:37 0° 76° (ENE) 3,135 6.3 -29.0°
